FW5407 Weather Reports


Display with metric or nautical units.
time (UTC)temp
F
wind
direction
speed
MPH
gust
MPH
rain 1hr
in
rain 24hr
in
rain mn
in
humidity
%
barometer
mb
20260505004021 70 50 1.0 4.0 0.00 0.00 0.00 48 1005.9
20260505003012 70 34 0.0 4.0 0.00 0.00 0.00 49 1005.9
20260505002511 70 14 0.0 4.0 0.00 0.00 0.00 48 1005.9
20260505002011 71 44 1.0 4.0 0.00 0.00 0.00 48 1006.0
20260505001511 71 26 0.0 4.0 0.00 0.00 0.00 48 1006.0
20260505001014 71 38 1.0 3.0 0.00 0.00 0.00 49 1006.0
20260505000512 71 36 0.0 2.0 0.00 0.00 0.00 50 1006.0
20260505000010 71 23 0.0 5.0 0.00 0.00 0.00 50 1006.0
20260504235510 72 74 2.0 5.0 0.00 0.00 0.00 48 1006.0
20260504235010 72 75 1.0 5.0 0.00 0.00 0.00 47 1006.0
20260504234509 73 61 0.0 3.0 0.00 0.00 0.00 47 1006.1
20260504234009 74 41 0.0 3.0 0.00 0.00 0.00 47 1006.1
20260504233011 75 20 0.0 2.0 0.00 0.00 0.00 44 1006.1
20260504232509 76 18 0.0 1.0 0.00 0.00 0.00 45 1006.1
20260504232013 76 313 0.0 1.0 0.00 0.00 0.00 46 1006.2
20260504231508 75 49 0.0 3.0 0.00 0.00 0.00 45 1006.2
20260504231009 75 51 1.0 3.0 0.00 0.00 0.00 45 1006.3
20260504230508 76 50 1.0 3.0 0.00 0.00 0.00 44 1006.3
20260504230009 75 71 0.0 3.0 0.00 0.00 0.00 46 1006.4
20260504225511 75 58 1.0 5.0 0.00 0.00 0.00 46 1006.4
20260504225009 75 18 1.0 5.0 0.00 0.00 0.00 45 1006.5
20260504224509 76 122 1.0 6.0 0.00 0.00 0.00 45 1006.5
20260504224007 76 102 0.0 6.0 0.00 0.00 0.00 45 1006.5
20260504223008 77 84 0.0 2.0 0.00 0.00 0.00 46 1006.5
20260504222508 77 29 0.0 2.0 0.00 0.00 0.00 46 1006.5
20260504222009 78 29 0.0 2.0 0.00 0.00 0.00 45 1006.5
20260504221511 78 71 0.0 3.0 0.00 0.00 0.00 45 1006.5
20260504221008 77 70 1.0 3.0 0.00 0.00 0.00 45 1006.6
20260504220508 78 76 0.0 3.0 0.00 0.00 0.00 44 1006.5
20260504220008 78 111 0.0 3.0 0.00 0.00 0.00 41 1006.6
20260504215507 79 51 0.0 3.0 0.00 0.00 0.00 44 1006.6
20260504215007 79 120 0.0 1.0 0.00 0.00 0.00 40 1006.7
20260504214508 78 56 0.0 3.0 0.00 0.00 0.00 42 1006.7
20260504214008 78 302 0.0 3.0 0.00 0.00 0.00 41 1006.7
20260504213008 79 321 0.0 4.0 0.00 0.00 0.00 44 1006.8
20260504212507 79 269 0.0 2.0 0.00 0.00 0.00 43 1006.8
20260504212003 78 49 0.0 3.0 0.00 0.00 0.00 45 1006.8
20260504211503 78 102 0.0 4.0 0.00 0.00 0.00 44 1006.8
20260504211003 78 60 0.0 4.0 0.00 0.00 0.00 44 1006.8
20260504210505 77 113 0.0 6.0 0.00 0.00 0.00 43 1006.8
20260504210004 78 128 1.0 6.0 0.00 0.00 0.00 42 1006.8
20260504205503 78 45 1.0 3.0 0.00 0.00 0.00 42 1006.9
20260504205000 77 122 1.0 4.0 0.00 0.00 0.00 47 1007.0
20260504204600 77 107 2.0 4.0 0.00 0.00 0.00 45 1007.0
20260504204100 77 86 0.0 4.0 0.00 0.00 0.00 46 1007.1
20260504203702 76 226 1.0 5.0 0.00 0.00 0.00 42 1007.1
20260504203100 77 22 2.0 5.0 0.00 0.00 0.00 42 1007.1
20260504202558 76 23 0.0 4.0 0.00 0.00 0.00 44 1007.1
20260504202059 75 20 0.0 4.0 0.00 0.00 0.00 44 1007.2
20260504201558 76 20 0.0 3.0 0.00 0.00 0.00 43 1007.2
20260504201056 75 68 0.0 2.0 0.00 0.00 0.00 46 1007.3
20260504200556 74 62 0.0 4.0 0.00 0.00 0.00 47 1007.3
20260504200100 74 129 0.0 4.0 0.00 0.00 0.00 47 1007.3
20260504195555 74 18 0.0 1.0 0.00 0.00 0.00 46 1007.2
20260504195055 74 27 0.0 2.0 0.00 0.00 0.00 47 1007.3
20260504194556 74 41 0.0 2.0 0.00 0.00 0.00 46 1007.2
20260504194055 74 55 0.0 2.0 0.00 0.00 0.00 46 1007.2
20260504193654 72 49 0.0 0.0 0.00 0.00 0.00 50 1007.2
20260504193055 72 315 0.0 0.0 0.00 0.00 0.00 49 1007.2
20260504192555 72 71 0.0 0.0 0.00 0.00 0.00 49 1007.2
20260504192055 72 146 0.0 3.0 0.00 0.00 0.00 51 1007.2
20260504191558 71 274 1.0 6.0 0.00 0.00 0.00 51 1007.3
20260504191054 71 44 1.0 7.0 0.00 0.00 0.00 53 1007.3
20260504190554 71 136 3.0 7.0 0.00 0.00 0.00 52 1007.3
20260504190108 72 101 1.0 5.0 0.00 0.00 0.00 50 1007.3
20260504185553 72 350 0.0 3.0 0.00 0.00 0.00 50 1007.4
20260504185052 72 32 0.0 0.0 0.00 0.00 0.00 51 1007.4
20260504184609 71 39 0.0 0.0 0.00 0.00 0.00 54 1007.4
20260504184049 69 68 0.0 1.0 0.00 0.00 0.00 55 1007.4
20260504183648 69 23 1.0 4.0 0.00 0.00 0.00 56 1007.4
20260504183053 69 113 2.0 4.0 0.00 0.00 0.00 55 1007.5
20260504182550 68 124 0.0 4.0 0.00 0.00 0.00 58 1007.5
20260504182048 68 142 0.0 5.0 0.00 0.00 0.00 59 1007.5
20260504181549 67 113 2.0 5.0 0.00 0.00 0.00 57 1007.5
20260504181047 67 128 0.0 6.0 0.00 0.00 0.00 57 1007.5
20260504180547 67 210 0.0 6.0 0.00 0.00 0.00 57 1007.5
20260504180048 66 120 0.0 5.0 0.00 0.00 0.00 58 1007.5
20260504175546 66 122 0.0 6.0 0.00 0.00 0.00 61 1007.5
20260504175047 65 114 0.0 6.0 0.00 0.00 0.00 61 1007.6
20260504174547 65 131 1.0 5.0 0.00 0.00 0.00 58 1007.6
20260504174046 65 145 1.0 5.0 0.00 0.00 0.00 59 1007.6
20260504173647 66 131 2.0 5.0 0.00 0.00 0.00 58 1007.5
20260504173055 66 126 2.0 6.0 0.00 0.00 0.00 58 1007.6
20260504172551 66 187 0.0 7.0 0.00 0.00 0.00 60 1007.6
20260504172050 67 125 1.0 7.0 0.00 0.00 0.00 56 1007.6
20260504171549 67 102 0.0 2.0 0.00 0.00 0.00 59 1007.6
20260504171050 67 135 0.0 3.0 0.00 0.00 0.00 57 1007.5
20260504170549 67 148 0.0 3.0 0.00 0.00 0.00 58 1007.4
20260504151035 57 50 0.0 0.0 0.00 0.00 0.00 84 1007.4
20260504150534 56 49 0.0 0.0 0.00 0.00 0.00 84 1007.4
20260504141033 52 46 0.0 0.0 0.00 0.00 0.00 90 1007.0
20260504140532 52 17 0.0 0.0 0.00 0.00 0.00 91 1006.9
20260504130520 0 0.0 0.0 0.00 0.00 0.00 1006.3
20260504110559 54 354 0.0 0.0 0.00 0.00 0.00 81 1006.3
20260504100557 55 328 0.0 0.0 0.00 0.00 0.00 76 1006.2
20260504081550 54 65 0.0 0.0 0.00 0.00 0.00 76 1006.3
20260504081051 54 65 0.0 0.0 0.00 0.00 0.00 72 1006.3
20260504080548 54 65 0.0 0.0 0.00 0.00 0.00 74 1006.3
20260504050625 57 65 0.0 0.0 0.00 0.00 0.00 65 1006.4
20260504050017 56 65 0.0 0.0 0.00 0.00 0.00 65 1006.4
20260504045515 56 65 0.0 0.0 0.00 0.00 0.00 69 1006.4
20260504045017 56 65 0.0 0.0 0.00 0.00 0.00 72 1006.5
20260504044522 56 65 0.0 0.0 0.00 0.00 0.00 71 1006.4
20260504044016 56 65 0.0 0.0 0.00 0.00 0.00 75 1006.4
20260504043514 57 65 0.0 0.0 0.00 0.00 0.00 75 1006.4
20260504043014 57 65 0.0 0.0 0.00 0.00 0.00 75 1006.4
20260504042514 57 65 0.0 0.0 0.00 0.00 0.00 75 1006.4
20260504042013 57 65 0.0 0.0 0.00 0.00 0.00 75 1006.3
20260504041516 57 65 0.0 0.0 0.00 0.00 0.00 75 1006.4
20260504041012 57 65 0.0 0.0 0.00 0.00 0.00 73 1006.4
20260504040611 58 65 0.0 0.0 0.00 0.00 0.00 71 1006.4
20260504040002 58 65 0.0 0.0 0.00 0.00 0.00 72 1006.4
20260504035600 58 65 0.0 0.0 0.00 0.00 0.00 72 1006.3
20260504035502 58 65 0.0 0.0 0.00 0.00 0.00 72 1006.4
20260504035100 58 65 0.0 0.0 0.00 0.00 0.00 72 1006.3
20260504034618 59 65 0.0 0.0 0.00 0.00 0.00 71 1006.4
20260504034058 59 65 0.0 0.0 0.00 0.00 0.00 70 1006.3
20260504033558 59 65 0.0 0.0 0.00 0.00 0.00 68 1006.3
20260504033126 60 65 0.0 0.0 0.00 0.00 0.00 69 1006.3
20260504032554 60 65 0.0 0.0 0.00 0.00 0.00 68 1006.2
20260504032056 61 65 0.0 0.0 0.00 0.00 0.00 67 1006.2
20260504031554 61 65 0.0 0.0 0.00 0.00 0.00 64 1006.2
20260504031051 61 65 0.0 0.0 0.00 0.00 0.00 65 1006.2
20260504030550 62 65 0.0 0.0 0.00 0.00 0.00 62 1006.3
20260504030030 62 65 0.0 0.0 0.00 0.00 0.00 62 1006.3
20260504025512 62 65 0.0 0.0 0.00 0.00 0.00 62 1006.3
20260504025009 62 65 0.0 0.0 0.00 0.00 0.00 63 1006.3
20260504024509 62 65 0.0 0.0 0.00 0.00 0.00 61 1006.3
20260504024009 63 65 0.0 0.0 0.00 0.00 0.00 61 1006.4
20260504023509 63 113 0.0 0.0 0.00 0.00 0.00 60 1006.4
20260504023006 63 113 0.0 0.0 0.00 0.00 0.00 60 1006.4
20260504022509 63 113 0.0 0.0 0.00 0.00 0.00 58 1006.4
20260504022004 64 113 0.0 0.0 0.00 0.00 0.00 58 1006.4
20260504021504 64 113 0.0 0.0 0.00 0.00 0.00 58 1006.5
20260504021002 64 113 0.0 0.0 0.00 0.00 0.00 58 1006.5
20260504020602 65 113 0.0 2.0 0.00 0.00 0.00 58 1006.7
20260504020037 65 113 0.0 2.0 0.00 0.00 0.00 58 1006.7
20260504015532 65 122 0.0 2.0 0.00 0.00 0.00 64 1006.7
20260504015033 65 130 0.0 2.0 0.00 0.00 0.00 60 1006.7
20260504014539 66 145 0.0 2.0 0.00 0.00 0.00 57 1006.7
20260504014027 66 169 0.0 3.0 0.00 0.00 0.00 57 1006.8
20260504013529 67 143 0.0 3.0 0.00 0.00 0.00 54 1006.8
20260504013026 67 120 0.0 5.0 0.00 0.00 0.00 53 1006.8
20260504012525 67 133 2.0 5.0 0.00 0.00 0.00 50 1006.9
20260504012024 67 122 0.0 4.0 0.00 0.00 0.00 54 1006.9
20260504011523 68 84 1.0 4.0 0.00 0.00 0.00 49 1007.0
20260504011023 68 130 1.0 6.0 0.00 0.00 0.00 52 1007.1
20260504010522 69 126 0.0 4.0 0.00 0.00 0.00 46 1007.1
20260504010003 69 125 1.0 4.0 0.00 0.00 0.00 46 1007.1
20260504005503 69 136 1.0 4.0 0.00 0.00 0.00 45 1007.2
20260504005003 69 113 2.0 4.0 0.00 0.00 0.00 45 1007.2
20260504004503 69 108 0.0 4.0 0.00 0.00 0.00 49 1007.2